| time (UTC) | temp C | wind direction | speed KPH | gust KPH | rain 1hr cm | rain 24hr cm | rain mn cm | humidity % | barometer mb |
| 20260506045100 | 14 | 223 | 3.2 | 0.0 | 0.00 | 0.00 | 0.00 | 86 | 1016.1 |
| 20260506045048 | 14 | 209 | 3.2 | 0.0 | 0.00 | 0.00 | 0.00 | 86 | 1016.3 |
| 20260506044647 | 14 | 198 | 3.2 | 0.0 | 0.00 | 0.00 | 0.00 | 86 | 1016.3 |
| 20260506044446 | 14 | 210 | 3.2 | 0.0 | 0.00 | 0.00 | 0.00 | 86 | 1016.3 |
| 20260506044246 | 14 | 169 | 1.6 | 0.0 | 0.00 | 0.00 | 0.00 | 85 | 1016.1 |
| 20260506044046 | 15 | 217 | 3.2 | 0.0 | 0.00 | 0.00 | 0.00 | 85 | 1016.1 |
| 20260506043846 | 15 | 213 | 3.2 | 0.0 | 0.00 | 0.00 | 0.00 | 85 | 1016.1 |
| 20260506043644 | 15 | 188 | 4.8 | 0.0 | 0.00 | 0.00 | 0.00 | 85 | 1016.1 |
| 20260506043444 | 15 | 220 | 3.2 | 0.0 | 0.00 | 0.00 | 0.00 | 85 | 1016.1 |
| 20260506043244 | 15 | 206 | 1.6 | 0.0 | 0.00 | 0.00 | 0.00 | 85 | 1016.1 |
| 20260506043044 | 15 | 200 | 4.8 | 0.0 | 0.00 | 0.00 | 0.00 | 85 | 1016.1 |
| 20260506042843 | 15 | 186 | 1.6 | 0.0 | 0.00 | 0.00 | 0.00 | 85 | 1016.1 |
| 20260506042655 | 15 | 199 | 3.2 | 0.0 | 0.00 | 0.00 | 0.00 | 84 | 1016.1 |
| 20260506042643 | 15 | 232 | 3.2 | 0.0 | 0.00 | 0.00 | 0.00 | 84 | 1016.1 |
| 20260506042242 | 15 | 183 | 4.8 | 0.0 | 0.00 | 0.00 | 0.00 | 85 | 1016.1 |
| 20260506042042 | 15 | 208 | 1.6 | 0.0 | 0.00 | 0.00 | 0.00 | 85 | 1016.1 |
| 20260506041842 | 15 | 229 | 3.2 | 0.0 | 0.00 | 0.00 | 0.00 | 85 | 1016.1 |
| 20260506041641 | 15 | 211 | 3.2 | 0.0 | 0.00 | 0.00 | 0.00 | 85 | 1016.0 |
| 20260506041441 | 15 | 225 | 1.6 | 0.0 | 0.00 | 0.00 | 0.00 | 85 | 1016.0 |
| 20260506041241 | 15 | 190 | 1.6 | 0.0 | 0.00 | 0.00 | 0.00 | 85 | 1016.0 |
| 20260506041040 | 15 | 229 | 1.6 | 0.0 | 0.00 | 0.00 | 0.00 | 85 | 1016.0 |
| 20260506040840 | 15 | 199 | 1.6 | 0.0 | 0.00 | 0.00 | 0.00 | 85 | 1016.1 |
| 20260506040639 | 15 | 195 | 3.2 | 0.0 | 0.00 | 0.00 | 0.00 | 84 | 1016.0 |
| 20260506040438 | 15 | 201 | 4.8 | 0.0 | 0.00 | 0.00 | 0.00 | 84 | 1016.0 |
| 20260506040237 | 15 | 174 | 1.6 | 0.0 | 0.00 | 0.00 | 0.00 | 84 | 1016.0 |
| 20260506040037 | 15 | 206 | 1.6 | 0.0 | 0.00 | 0.00 | 0.00 | 84 | 1015.9 |
| 20260506035836 | 15 | 201 | 1.6 | 0.0 | 0.00 | 0.00 | 0.00 | 84 | 1015.9 |
| 20260506035635 | 15 | 224 | 3.2 | 0.0 | 0.00 | 0.00 | 0.00 | 84 | 1015.8 |
| 20260506035435 | 15 | 179 | 3.2 | 0.0 | 0.00 | 0.00 | 0.00 | 84 | 1016.0 |
| 20260506035234 | 15 | 187 | 1.6 | 0.0 | 0.00 | 0.00 | 0.00 | 84 | 1015.9 |
| 20260506035034 | 15 | 189 | 3.2 | 0.0 | 0.00 | 0.00 | 0.00 | 84 | 1015.8 |
| 20260506034834 | 15 | 192 | 3.2 | 0.0 | 0.00 | 0.00 | 0.00 | 84 | 1015.9 |
| 20260506034633 | 15 | 188 | 3.2 | 0.0 | 0.00 | 0.00 | 0.00 | 84 | 1015.8 |
| 20260506034433 | 15 | 190 | 3.2 | 0.0 | 0.00 | 0.00 | 0.00 | 84 | 1015.8 |
| 20260506034232 | 15 | 165 | 1.6 | 0.0 | 0.00 | 0.00 | 0.00 | 84 | 1015.8 |
| 20260506034033 | 15 | 191 | 1.6 | 0.0 | 0.00 | 0.00 | 0.00 | 84 | 1015.8 |
| 20260506033833 | 15 | 195 | 3.2 | 0.0 | 0.00 | 0.00 | 0.00 | 84 | 1015.9 |
| 20260506033632 | 15 | 201 | 1.6 | 0.0 | 0.00 | 0.00 | 0.00 | 83 | 1015.9 |
| 20260506033432 | 15 | 193 | 1.6 | 0.0 | 0.00 | 0.00 | 0.00 | 83 | 1015.9 |
| 20260506033231 | 15 | 209 | 0.0 | 0.0 | 0.00 | 0.00 | 0.00 | 83 | 1015.9 |
| 20260506033031 | 15 | 208 | 0.0 | 0.0 | 0.00 | 0.00 | 0.00 | 83 | 1015.8 |
| 20260506032839 | 15 | 167 | 0.0 | 0.0 | 0.00 | 0.00 | 0.00 | 83 | 1015.8 |
| 20260506032830 | 15 | 211 | 1.6 | 0.0 | 0.00 | 0.00 | 0.00 | 83 | 1015.8 |
| 20260506032429 | 15 | 217 | 1.6 | 0.0 | 0.00 | 0.00 | 0.00 | 83 | 1015.7 |
| 20260506032228 | 15 | 206 | 3.2 | 0.0 | 0.00 | 0.00 | 0.00 | 82 | 1015.8 |
| 20260506032028 | 15 | 199 | 1.6 | 0.0 | 0.00 | 0.00 | 0.00 | 82 | 1015.9 |
| 20260506031827 | 15 | 205 | 1.6 | 0.0 | 0.00 | 0.00 | 0.00 | 82 | 1015.8 |
| 20260506031626 | 15 | 197 | 1.6 | 0.0 | 0.00 | 0.00 | 0.00 | 82 | 1015.7 |
| 20260506031427 | 15 | 198 | 1.6 | 0.0 | 0.00 | 0.00 | 0.00 | 82 | 1015.8 |
| 20260506031226 | 15 | 194 | 1.6 | 0.0 | 0.00 | 0.00 | 0.00 | 82 | 1015.9 |
| 20260506031025 | 15 | 222 | 1.6 | 0.0 | 0.00 | 0.00 | 0.00 | 82 | 1015.7 |
| 20260506030826 | 15 | 208 | 1.6 | 0.0 | 0.00 | 0.00 | 0.00 | 82 | 1015.8 |
| 20260506030625 | 15 | 190 | 1.6 | 0.0 | 0.00 | 0.00 | 0.00 | 81 | 1015.5 |
| 20260506030424 | 15 | 192 | 1.6 | 0.0 | 0.00 | 0.00 | 0.00 | 81 | 1015.6 |
| 20260506030223 | 16 | 208 | 1.6 | 0.0 | 0.00 | 0.00 | 0.00 | 81 | 1015.7 |
| 20260506030035 | 16 | 194 | 3.2 | 0.0 | 0.00 | 0.00 | 0.00 | 80 | 1015.6 |
| 20260506030023 | 16 | 208 | 3.2 | 0.0 | 0.00 | 0.00 | 0.00 | 80 | 1015.6 |
| 20260506025831 | 16 | 200 | 3.2 | 0.0 | 0.00 | 0.00 | 0.00 | 80 | 1015.6 |
| 20260506025422 | 16 | 206 | 3.2 | 0.0 | 0.00 | 0.00 | 0.00 | 80 | 1015.6 |
| 20260506025233 | 16 | 200 | 3.2 | 0.0 | 0.00 | 0.00 | 0.00 | 80 | 1015.6 |
| 20260506025221 | 16 | 205 | 3.2 | 0.0 | 0.00 | 0.00 | 0.00 | 80 | 1015.6 |
| 20260506024820 | 16 | 173 | 1.6 | 0.0 | 0.00 | 0.00 | 0.00 | 80 | 1015.6 |
| 20260506024620 | 16 | 184 | 3.2 | 0.0 | 0.00 | 0.00 | 0.00 | 79 | 1015.6 |
| 20260506024420 | 16 | 200 | 3.2 | 0.0 | 0.00 | 0.00 | 0.00 | 79 | 1015.5 |
| 20260506024229 | 16 | 216 | 1.6 | 0.0 | 0.00 | 0.00 | 0.00 | 78 | 1015.6 |
| 20260506024219 | 16 | 222 | 4.8 | 0.0 | 0.00 | 0.00 | 0.00 | 79 | 1015.6 |
| 20260506023817 | 16 | 193 | 3.2 | 0.0 | 0.00 | 0.00 | 0.00 | 79 | 1015.5 |
| 20260506023617 | 16 | 177 | 3.2 | 0.0 | 0.00 | 0.00 | 0.00 | 78 | 1015.6 |
| 20260506023416 | 16 | 213 | 1.6 | 0.0 | 0.00 | 0.00 | 0.00 | 78 | 1015.5 |
| 20260506023217 | 16 | 229 | 1.6 | 0.0 | 0.00 | 0.00 | 0.00 | 78 | 1015.3 |
| 20260506023017 | 16 | 181 | 3.2 | 0.0 | 0.00 | 0.00 | 0.00 | 78 | 1015.4 |
| 20260506022816 | 16 | 197 | 1.6 | 0.0 | 0.00 | 0.00 | 0.00 | 78 | 1015.5 |
| 20260506022616 | 16 | 215 | 1.6 | 0.0 | 0.00 | 0.00 | 0.00 | 78 | 1015.4 |
| 20260506022416 | 16 | 189 | 1.6 | 0.0 | 0.00 | 0.00 | 0.00 | 77 | 1015.4 |
| 20260506022016 | 16 | 176 | 1.6 | 0.0 | 0.00 | 0.00 | 0.00 | 79 | 1015.7 |
| 20260506021816 | 16 | 179 | 1.6 | 0.0 | 0.00 | 0.00 | 0.00 | 78 | 1015.5 |
| 20260506021615 | 16 | 194 | 3.2 | 0.0 | 0.00 | 0.00 | 0.00 | 77 | 1015.4 |
| 20260506021414 | 16 | 181 | 1.6 | 0.0 | 0.00 | 0.00 | 0.00 | 77 | 1015.4 |
| 20260506021215 | 16 | 173 | 1.6 | 0.0 | 0.00 | 0.00 | 0.00 | 77 | 1015.5 |
| 20260506021014 | 16 | 202 | 3.2 | 0.0 | 0.00 | 0.00 | 0.00 | 78 | 1015.5 |
| 20260506020814 | 16 | 205 | 6.4 | 0.0 | 0.00 | 0.00 | 0.00 | 78 | 1015.5 |
| 20260506020614 | 16 | 173 | 1.6 | 0.0 | 0.00 | 0.00 | 0.00 | 78 | 1015.4 |
| 20260506020426 | 16 | 188 | 3.2 | 0.0 | 0.00 | 0.00 | 0.00 | 76 | 1015.4 |
| 20260506020413 | 16 | 214 | 1.6 | 0.0 | 0.00 | 0.00 | 0.00 | 77 | 1015.4 |
| 20260506020012 | 16 | 211 | 3.2 | 0.0 | 0.00 | 0.00 | 0.00 | 77 | 1015.5 |
| 20260506015812 | 16 | 230 | 1.6 | 0.0 | 0.00 | 0.00 | 0.00 | 77 | 1015.5 |
| 20260506015624 | 17 | 243 | 1.6 | 0.0 | 0.00 | 0.00 | 0.00 | 77 | 1015.4 |
| 20260506015612 | 16 | 189 | 1.6 | 0.0 | 0.00 | 0.00 | 0.00 | 77 | 1015.5 |
| 20260506015209 | 17 | 216 | 3.2 | 0.0 | 0.00 | 0.00 | 0.00 | 76 | 1015.4 |
| 20260506015009 | 17 | 201 | 3.2 | 0.0 | 0.00 | 0.00 | 0.00 | 75 | 1015.4 |
| 20260506014808 | 17 | 266 | 1.6 | 0.0 | 0.00 | 0.00 | 0.00 | 76 | 1015.4 |
| 20260506014607 | 17 | 223 | 3.2 | 0.0 | 0.00 | 0.00 | 0.00 | 76 | 1015.5 |
| 20260506014407 | 17 | 225 | 1.6 | 0.0 | 0.00 | 0.00 | 0.00 | 76 | 1015.6 |
| 20260506014206 | 17 | 161 | 3.2 | 0.0 | 0.00 | 0.00 | 0.00 | 76 | 1015.6 |
| 20260506014006 | 17 | 222 | 3.2 | 0.0 | 0.00 | 0.00 | 0.00 | 76 | 1015.6 |
| 20260506013819 | 17 | 249 | 3.2 | 0.0 | 0.00 | 0.00 | 0.00 | 76 | 1015.6 |
| 20260506013805 | 17 | 198 | 4.8 | 0.0 | 0.00 | 0.00 | 0.00 | 76 | 1015.6 |
| 20260506013405 | 17 | 163 | 1.6 | 0.0 | 0.00 | 0.00 | 0.00 | 76 | 1015.4 |
| 20260506013205 | 17 | 167 | 1.6 | 0.0 | 0.00 | 0.00 | 0.00 | 75 | 1015.7 |
| 20260506013005 | 17 | 241 | 1.6 | 0.0 | 0.00 | 0.00 | 0.00 | 75 | 1015.6 |
| 20260506012814 | 17 | 241 | 1.6 | 0.0 | 0.00 | 0.00 | 0.00 | 75 | 1015.6 |
| 20260506012804 | 17 | 203 | 3.2 | 0.0 | 0.00 | 0.00 | 0.00 | 75 | 1015.6 |
| 20260506012617 | 17 | 171 | 1.6 | 0.0 | 0.00 | 0.00 | 0.00 | 76 | 1015.4 |
| 20260506012203 | 17 | 208 | 1.6 | 0.0 | 0.00 | 0.00 | 0.00 | 76 | 1015.5 |
| 20260506011802 | 17 | 199 | 4.8 | 0.0 | 0.00 | 0.00 | 0.00 | 75 | 1015.4 |
| 20260506011612 | 17 | 183 | 3.2 | 0.0 | 0.00 | 0.00 | 0.00 | 75 | 1015.5 |
| 20260506011600 | 17 | 174 | 4.8 | 0.0 | 0.00 | 0.00 | 0.00 | 76 | 1015.5 |
| 20260506011211 | 17 | 164 | 1.6 | 0.0 | 0.00 | 0.00 | 0.00 | 76 | 1015.5 |
| 20260506011201 | 17 | 215 | 0.0 | 0.0 | 0.00 | 0.00 | 0.00 | 75 | 1015.5 |
| 20260506010759 | 17 | 210 | 3.2 | 0.0 | 0.00 | 0.00 | 0.00 | 76 | 1015.6 |
| 20260506010559 | 17 | 178 | 3.2 | 0.0 | 0.00 | 0.00 | 0.00 | 76 | 1015.5 |
| 20260506010358 | 17 | 85 | 1.6 | 0.0 | 0.00 | 0.00 | 0.00 | 75 | 1015.5 |
| 20260506010207 | 17 | 207 | 3.2 | 0.0 | 0.00 | 0.00 | 0.00 | 76 | 1015.6 |
| 20260506010158 | 17 | 193 | 6.4 | 0.0 | 0.00 | 0.00 | 0.00 | 76 | 1015.5 |
| 20260506005557 | 17 | 210 | 1.6 | 0.0 | 0.00 | 0.00 | 0.00 | 75 | 1015.6 |
| 20260506005356 | 17 | 153 | 0.0 | 0.0 | 0.00 | 0.00 | 0.00 | 75 | 1015.4 |
| 20260506005156 | 17 | 158 | 1.6 | 0.0 | 0.00 | 0.00 | 0.00 | 76 | 1015.4 |
| 20260506004957 | 17 | 221 | 3.2 | 0.0 | 0.00 | 0.00 | 0.00 | 75 | 1015.4 |
| 20260506004756 | 17 | 199 | 3.2 | 0.0 | 0.00 | 0.00 | 0.00 | 76 | 1015.5 |
| 20260506004556 | 17 | 248 | 3.2 | 0.0 | 0.00 | 0.00 | 0.00 | 75 | 1015.4 |
| 20260506004356 | 17 | 262 | 1.6 | 0.0 | 0.00 | 0.00 | 0.00 | 75 | 1015.4 |
| 20260506004156 | 17 | 173 | 4.8 | 0.0 | 0.00 | 0.00 | 0.00 | 74 | 1015.5 |
| 20260506003954 | 17 | 283 | 1.6 | 0.0 | 0.00 | 0.00 | 0.00 | 75 | 1015.5 |
| 20260506003753 | 17 | 247 | 1.6 | 0.0 | 0.00 | 0.00 | 0.00 | 74 | 1015.6 |
| 20260506003552 | 17 | 244 | 3.2 | 0.0 | 0.00 | 0.00 | 0.00 | 74 | 1015.6 |
| 20260506003351 | 17 | 190 | 3.2 | 0.0 | 0.00 | 0.00 | 0.00 | 75 | 1015.6 |
| 20260506003151 | 17 | 201 | 1.6 | 0.0 | 0.00 | 0.00 | 0.00 | 73 | 1015.5 |
| 20260506002950 | 17 | 197 | 4.8 | 0.0 | 0.00 | 0.00 | 0.00 | 74 | 1015.5 |
| 20260506002602 | 18 | 190 | 3.2 | 0.0 | 0.00 | 0.00 | 0.00 | 73 | 1015.5 |
| 20260506002549 | 18 | 214 | 1.6 | 0.0 | 0.00 | 0.00 | 0.00 | 74 | 1015.5 |
| 20260506002148 | 18 | 158 | 0.0 | 0.0 | 0.00 | 0.00 | 0.00 | 72 | 1015.5 |
| 20260506001948 | 18 | 156 | 0.0 | 0.0 | 0.00 | 0.00 | 0.00 | 72 | 1015.7 |
| 20260506001748 | 18 | 224 | 3.2 | 0.0 | 0.00 | 0.00 | 0.00 | 72 | 1015.7 |
| 20260506001546 | 17 | 217 | 3.2 | 0.0 | 0.00 | 0.00 | 0.00 | 74 | 1015.7 |
| 20260506001400 | 17 | 221 | 3.2 | 0.0 | 0.00 | 0.00 | 0.00 | 73 | 1015.6 |
| 20260506001347 | 17 | 188 | 1.6 | 0.0 | 0.00 | 0.00 | 0.00 | 73 | 1015.8 |
| 20260506000946 | 17 | 159 | 1.6 | 0.0 | 0.00 | 0.00 | 0.00 | 74 | 1015.7 |
| 20260506000746 | 18 | 206 | 3.2 | 0.0 | 0.00 | 0.00 | 0.00 | 71 | 1015.9 |
| 20260506000346 | 18 | 90 | 0.0 | 0.0 | 0.00 | 0.00 | 0.00 | 71 | 1015.9 |
| 20260506000144 | 18 | 111 | 1.6 | 0.0 | 0.00 | 0.00 | 0.00 | 70 | 1015.9 |
| 20260505235944 | 18 | 187 | 6.4 | 0.0 | 0.00 | 0.00 | 0.00 | 72 | 1015.9 |
| 20260505235744 | 18 | 138 | 1.6 | 0.0 | 0.00 | 0.00 | 0.00 | 71 | 1015.9 |
| 20260505235543 | 18 | 197 | 1.6 | 0.0 | 0.00 | 0.00 | 0.00 | 72 | 1016.0 |
| 20260505235343 | 18 | 172 | 1.6 | 0.0 | 0.00 | 0.00 | 0.00 | 72 | 1015.9 |
| 20260505235143 | 18 | 194 | 4.8 | 0.0 | 0.00 | 0.00 | 0.00 | 70 | 1016.0 |
| 20260505234956 | 18 | 173 | 0.0 | 0.0 | 0.00 | 0.00 | 0.00 | 69 | 1016.0 |
| 20260505234942 | 18 | 161 | 0.0 | 0.0 | 0.00 | 0.00 | 0.00 | 71 | 1016.0 |
| 20260505234342 | 18 | 217 | 3.2 | 0.0 | 0.00 | 0.00 | 0.00 | 71 | 1016.0 |
| 20260505233941 | 18 | 208 | 4.8 | 0.0 | 0.00 | 0.00 | 0.00 | 69 | 1016.0 |
| 20260505233740 | 18 | 223 | 3.2 | 0.0 | 0.00 | 0.00 | 0.00 | 69 | 1016.1 |
| 20260505233539 | 19 | 132 | 1.6 | 0.0 | 0.00 | 0.00 | 0.00 | 68 | 1016.0 |
| 20260505233338 | 19 | 211 | 1.6 | 0.0 | 0.00 | 0.00 | 0.00 | 67 | 1016.0 |
| 20260505233137 | 20 | 118 | 1.6 | 0.0 | 0.00 | 0.00 | 0.00 | 66 | 1016.1 |
| 20260505232736 | 20 | 173 | 1.6 | 0.0 | 0.00 | 0.00 | 0.00 | 67 | 1015.9 |
| 20260505232547 | 20 | 176 | 4.8 | 0.0 | 0.00 | 0.00 | 0.00 | 67 | 1016.0 |
| 20260505232536 | 20 | 112 | 0.0 | 0.0 | 0.00 | 0.00 | 0.00 | 67 | 1016.0 |
| 20260505232134 | 19 | 182 | 1.6 | 0.0 | 0.00 | 0.00 | 0.00 | 67 | 1016.1 |
| 20260505231933 | 20 | 173 | 3.2 | 0.0 | 0.00 | 0.00 | 0.00 | 65 | 1016.1 |
| 20260505231746 | 20 | 117 | 1.6 | 0.0 | 0.00 | 0.00 | 0.00 | 67 | 1016.2 |
| 20260505231332 | 20 | 168 | 1.6 | 0.0 | 0.00 | 0.00 | 0.00 | 66 | 1016.2 |
| 20260505230931 | 20 | 192 | 1.6 | 0.0 | 0.00 | 0.00 | 0.00 | 66 | 1016.1 |
| 20260505230330 | 20 | 197 | 9.7 | 0.0 | 0.00 | 0.00 | 0.00 | 64 | 1016.2 |
| 20260505225930 | 20 | 176 | 0.0 | 0.0 | 0.00 | 0.00 | 0.00 | 65 | 1016.2 |
| 20260505225729 | 20 | 124 | 1.6 | 0.0 | 0.00 | 0.00 | 0.00 | 64 | 1016.2 |
| 20260505225529 | 20 | 148 | 1.6 | 0.0 | 0.00 | 0.00 | 0.00 | 64 | 1016.2 |
| 20260505225328 | 20 | 61 | 1.6 | 0.0 | 0.00 | 0.00 | 0.00 | 65 | 1016.1 |
| 20260505225127 | 20 | 147 | 1.6 | 0.0 | 0.00 | 0.00 | 0.00 | 65 | 1016.4 |
| 20260505224927 | 20 | 123 | 1.6 | 0.0 | 0.00 | 0.00 | 0.00 | 64 | 1016.3 |
| 20260505224726 | 20 | 162 | 1.6 | 0.0 | 0.00 | 0.00 | 0.00 | 66 | 1016.3 |
| 20260505224526 | 20 | 170 | 1.6 | 0.0 | 0.00 | 0.00 | 0.00 | 66 | 1016.5 |
| 20260505224325 | 20 | 186 | 1.6 | 0.0 | 0.00 | 0.00 | 0.00 | 65 | 1016.4 |
| 20260505224124 | 19 | 135 | 0.0 | 0.0 | 0.00 | 0.00 | 0.00 | 68 | 1016.3 |
| 20260505223923 | 19 | 179 | 0.0 | 0.0 | 0.00 | 0.00 | 0.00 | 68 | 1016.3 |
| 20260505223722 | 18 | 179 | 1.6 | 0.0 | 0.00 | 0.00 | 0.00 | 68 | 1016.4 |
| 20260505223322 | 18 | 190 | 4.8 | 0.0 | 0.00 | 0.00 | 0.00 | 70 | 1016.4 |
| 20260505222921 | 18 | 145 | 3.2 | 0.0 | 0.00 | 0.00 | 0.00 | 69 | 1016.3 |
| 20260505222730 | 18 | 190 | 6.4 | 0.0 | 0.00 | 0.00 | 0.00 | 70 | 1016.4 |
| 20260505222721 | 18 | 133 | 1.6 | 0.0 | 0.00 | 0.00 | 0.00 | 69 | 1016.4 |
| 20260505222319 | 18 | 163 | 1.6 | 0.0 | 0.00 | 0.00 | 0.00 | 70 | 1016.5 |
| 20260505222120 | 18 | 166 | 3.2 | 0.0 | 0.00 | 0.00 | 0.00 | 69 | 1016.5 |
| 20260505221918 | 18 | 134 | 1.6 | 0.0 | 0.00 | 0.00 | 0.00 | 69 | 1016.6 |
| 20260505221717 | 18 | 133 | 1.6 | 0.0 | 0.00 | 0.00 | 0.00 | 70 | 1016.5 |
| 20260505221517 | 18 | 148 | 1.6 | 0.0 | 0.00 | 0.00 | 0.00 | 67 | 1016.5 |
| 20260505221316 | 18 | 172 | 3.2 | 0.0 | 0.00 | 0.00 | 0.00 | 67 | 1016.6 |
| 20260505221116 | 18 | 188 | 3.2 | 0.0 | 0.00 | 0.00 | 0.00 | 68 | 1016.6 |
| 20260505220915 | 18 | 150 | 0.0 | 0.0 | 0.00 | 0.00 | 0.00 | 68 | 1016.5 |
| 20260505220514 | 20 | 191 | 1.6 | 0.0 | 0.00 | 0.00 | 0.00 | 64 | 1016.5 |
| 20260505220314 | 19 | 128 | 1.6 | 0.0 | 0.00 | 0.00 | 0.00 | 67 | 1016.5 |
| 20260505220114 | 18 | 183 | 1.6 | 0.0 | 0.00 | 0.00 | 0.00 | 68 | 1016.5 |
| 20260505215913 | 18 | 167 | 1.6 | 0.0 | 0.00 | 0.00 | 0.00 | 69 | 1016.6 |
| 20260505215714 | 19 | 131 | 3.2 | 0.0 | 0.00 | 0.00 | 0.00 | 68 | 1016.7 |
| 20260505215513 | 18 | 143 | 1.6 | 0.0 | 0.00 | 0.00 | 0.00 | 68 | 1016.6 |
| 20260505215312 | 18 | 144 | 1.6 | 0.0 | 0.00 | 0.00 | 0.00 | 67 | 1016.6 |
| 20260505215124 | 18 | 152 | 1.6 | 0.0 | 0.00 | 0.00 | 0.00 | 66 | 1016.8 |
| 20260505215111 | 18 | 106 | 1.6 | 0.0 | 0.00 | 0.00 | 0.00 | 68 | 1016.7 |
| 20260505214724 | 19 | 205 | 1.6 | 0.0 | 0.00 | 0.00 | 0.00 | 66 | 1016.7 |
| 20260505214711 | 19 | 210 | 0.0 | 0.0 | 0.00 | 0.00 | 0.00 | 65 | 1016.8 |
| 20260505214309 | 19 | 169 | 3.2 | 0.0 | 0.00 | 0.00 | 0.00 | 69 | 1016.9 |
| 20260505213909 | 18 | 177 | 3.2 | 0.0 | 0.00 | 0.00 | 0.00 | 69 | 1017.0 |
| 20260505213709 | 18 | 112 | 1.6 | 0.0 | 0.00 | 0.00 | 0.00 | 68 | 1016.9 |
| 20260505213509 | 19 | 230 | 8.0 | 0.0 | 0.00 | 0.00 | 0.00 | 69 | 1016.9 |
| 20260505213308 | 18 | 198 | 6.4 | 0.0 | 0.00 | 0.00 | 0.00 | 68 | 1016.9 |
| 20260505213108 | 18 | 126 | 3.2 | 0.0 | 0.00 | 0.00 | 0.00 | 71 | 1016.9 |
| 20260505212906 | 18 | 194 | 9.7 | 0.0 | 0.00 | 0.00 | 0.00 | 70 | 1016.9 |
| 20260505212707 | 18 | 170 | 11.3 | 0.0 | 0.00 | 0.00 | 0.00 | 69 | 1016.9 |
| 20260505212506 | 18 | 184 | 4.8 | 0.0 | 0.00 | 0.00 | 0.00 | 71 | 1016.9 |
| 20260505212306 | 17 | 170 | 4.8 | 0.0 | 0.00 | 0.00 | 0.00 | 72 | 1017.0 |
| 20260505212106 | 17 | 157 | 3.2 | 0.0 | 0.00 | 0.00 | 0.00 | 70 | 1017.0 |
| 20260505211904 | 18 | 158 | 1.6 | 0.0 | 0.00 | 0.00 | 0.00 | 70 | 1016.9 |
| 20260505211704 | 17 | 150 | 4.8 | 0.0 | 0.00 | 0.00 | 0.00 | 70 | 1016.9 |
| 20260505211514 | 17 | 208 | 4.8 | 0.0 | 0.00 | 0.00 | 0.00 | 71 | 1016.8 |
| 20260505211503 | 18 | 111 | 1.6 | 0.0 | 0.00 | 0.00 | 0.00 | 70 | 1016.9 |
| 20260505211113 | 17 | 145 | 1.6 | 0.0 | 0.00 | 0.00 | 0.00 | 71 | 1017.0 |
| 20260505211103 | 17 | 197 | 12.9 | 0.0 | 0.00 | 0.00 | 0.00 | 71 | 1016.9 |
| 20260505210702 | 18 | 142 | 1.6 | 0.0 | 0.00 | 0.00 | 0.00 | 70 | 1016.9 |
| 20260505210502 | 17 | 150 | 1.6 | 0.0 | 0.00 | 0.00 | 0.00 | 71 | 1016.9 |
| 20260505210302 | 17 | 223 | 3.2 | 0.0 | 0.00 | 0.00 | 0.00 | 72 | 1016.9 |
| 20260505205901 | 17 | 122 | 1.6 | 0.0 | 0.00 | 0.00 | 0.00 | 70 | 1016.9 |
| 20260505205701 | 18 | 161 | 1.6 | 0.0 | 0.00 | 0.00 | 0.00 | 72 | 1016.8 |
| 20260505205501 | 17 | 156 | 1.6 | 0.0 | 0.00 | 0.00 | 0.00 | 72 | 1017.0 |
| 20260505205300 | 17 | 169 | 1.6 | 0.0 | 0.00 | 0.00 | 0.00 | 72 | 1016.9 |
| 20260505205100 | 17 | 135 | 1.6 | 0.0 | 0.00 | 0.00 | 0.00 | 73 | 1017.1 |
| 20260505204859 | 17 | 139 | 1.6 | 0.0 | 0.00 | 0.00 | 0.00 | 74 | 1017.0 |
| 20260505204659 | 16 | 261 | 3.2 | 0.0 | 0.00 | 0.00 | 0.00 | 75 | 1017.2 |
| 20260505204459 | 16 | 150 | 1.6 | 0.0 | 0.00 | 0.00 | 0.00 | 75 | 1017.0 |
| 20260505204258 | 16 | 146 | 0.0 | 0.0 | 0.00 | 0.00 | 0.00 | 75 | 1017.3 |
| 20260505204057 | 16 | 143 | 1.6 | 0.0 | 0.00 | 0.00 | 0.00 | 77 | 1017.2 |
| 20260505203857 | 16 | 124 | 1.6 | 0.0 | 0.00 | 0.00 | 0.00 | 76 | 1017.2 |
| 20260505203657 | 16 | 159 | 1.6 | 0.0 | 0.00 | 0.00 | 0.00 | 76 | 1017.1 |
| 20260505203507 | 16 | 192 | 4.8 | 0.0 | 0.00 | 0.00 | 0.00 | 75 | 1017.3 |
| 20260505203456 | 16 | 193 | 4.8 | 0.0 | 0.00 | 0.00 | 0.00 | 75 | 1017.1 |
| 20260505203309 | 16 | 176 | 3.2 | 0.0 | 0.00 | 0.00 | 0.00 | 75 | 1017.3 |
| 20260505202855 | 16 | 147 | 1.6 | 0.0 | 0.00 | 0.00 | 0.00 | 75 | 1017.3 |
| 20260505202655 | 16 | 184 | 3.2 | 0.0 | 0.00 | 0.00 | 0.00 | 75 | 1017.2 |
| 20260505202454 | 16 | 190 | 3.2 | 0.0 | 0.00 | 0.00 | 0.00 | 75 | 1017.2 |
| 20260505202254 | 16 | 226 | 6.4 | 0.0 | 0.00 | 0.00 | 0.00 | 76 | 1017.2 |
| 20260505202054 | 16 | 199 | 3.2 | 0.0 | 0.00 | 0.00 | 0.00 | 76 | 1017.3 |
| 20260505201853 | 16 | 144 | 0.0 | 0.0 | 0.00 | 0.00 | 0.00 | 77 | 1017.4 |
| 20260505201653 | 16 | 167 | 1.6 | 0.0 | 0.00 | 0.00 | 0.00 | 77 | 1017.3 |
| 20260505201252 | 16 | 117 | 1.6 | 0.0 | 0.00 | 0.00 | 0.00 | 75 | 1017.2 |
| 20260505201052 | 16 | 159 | 1.6 | 0.0 | 0.00 | 0.00 | 0.00 | 75 | 1017.3 |
| 20260505200852 | 16 | 131 | 0.0 | 0.0 | 0.00 | 0.00 | 0.00 | 76 | 1017.4 |
| 20260505200651 | 16 | 143 | 3.2 | 0.0 | 0.00 | 0.00 | 0.00 | 74 | 1017.2 |
| 20260505200452 | 16 | 142 | 1.6 | 0.0 | 0.00 | 0.00 | 0.00 | 75 | 1017.3 |
| 20260505200250 | 16 | 203 | 1.6 | 0.0 | 0.00 | 0.00 | 0.00 | 76 | 1017.1 |
| 20260505200051 | 16 | 180 | 3.2 | 0.0 | 0.00 | 0.00 | 0.00 | 76 | 1017.1 |
| 20260505195850 | 16 | 154 | 1.6 | 0.0 | 0.00 | 0.00 | 0.00 | 75 | 1017.1 |
| 20260505195650 | 16 | 129 | 1.6 | 0.0 | 0.00 | 0.00 | 0.00 | 75 | 1017.2 |
| 20260505195450 | 16 | 150 | 1.6 | 0.0 | 0.00 | 0.00 | 0.00 | 75 | 1017.1 |
| 20260505195250 | 16 | 205 | 3.2 | 0.0 | 0.00 | 0.00 | 0.00 | 77 | 1017.2 |
| 20260505195048 | 16 | 224 | 1.6 | 0.0 | 0.00 | 0.00 | 0.00 | 76 | 1017.3 |
| 20260505194849 | 16 | 262 | 3.2 | 0.0 | 0.00 | 0.00 | 0.00 | 75 | 1017.2 |
| 20260505194647 | 16 | 187 | 9.7 | 0.0 | 0.00 | 0.00 | 0.00 | 76 | 1017.3 |
| 20260505194446 | 16 | 102 | 0.0 | 0.0 | 0.00 | 0.00 | 0.00 | 76 | 1017.2 |
| 20260505194246 | 16 | 160 | 1.6 | 0.0 | 0.00 | 0.00 | 0.00 | 76 | 1017.3 |
| 20260505194045 | 16 | 203 | 4.8 | 0.0 | 0.00 | 0.00 | 0.00 | 76 | 1017.2 |
| 20260505193845 | 16 | 193 | 3.2 | 0.0 | 0.00 | 0.00 | 0.00 | 76 | 1017.4 |
| 20260505193656 | 16 | 188 | 3.2 | 0.0 | 0.00 | 0.00 | 0.00 | 76 | 1017.3 |
| 20260505193644 | 16 | 201 | 4.8 | 0.0 | 0.00 | 0.00 | 0.00 | 76 | 1017.2 |
| 20260505193255 | 15 | 190 | 6.4 | 0.0 | 0.00 | 0.00 | 0.00 | 77 | 1017.3 |
| 20260505193244 | 16 | 209 | 8.0 | 0.0 | 0.00 | 0.00 | 0.00 | 77 | 1017.3 |
| 20260505192843 | 15 | 249 | 3.2 | 0.0 | 0.00 | 0.00 | 0.00 | 77 | 1017.3 |
| 20260505192643 | 15 | 156 | 3.2 | 0.0 | 0.00 | 0.00 | 0.00 | 76 | 1017.3 |
| 20260505192443 | 15 | 197 | 6.4 | 0.0 | 0.00 | 0.00 | 0.00 | 76 | 1017.3 |
| 20260505192042 | 16 | 198 | 4.8 | 0.0 | 0.00 | 0.00 | 0.00 | 78 | 1017.3 |
| 20260505191841 | 15 | 197 | 1.6 | 0.0 | 0.00 | 0.00 | 0.00 | 77 | 1017.3 |
| 20260505191640 | 15 | 217 | 9.7 | 0.0 | 0.00 | 0.00 | 0.00 | 77 | 1017.3 |
| 20260505191449 | 15 | 165 | 1.6 | 0.0 | 0.00 | 0.00 | 0.00 | 76 | 1017.2 |
| 20260505191440 | 15 | 197 | 6.4 | 0.0 | 0.00 | 0.00 | 0.00 | 76 | 1017.3 |
| 20260505191039 | 15 | 115 | 0.0 | 0.0 | 0.00 | 0.00 | 0.00 | 78 | 1017.3 |
| 20260505190839 | 15 | 164 | 1.6 | 0.0 | 0.00 | 0.00 | 0.00 | 76 | 1017.3 |
| 20260505190439 | 15 | 225 | 0.0 | 0.0 | 0.00 | 0.00 | 0.00 | 77 | 1017.2 |
| 20260505190247 | 15 | 205 | 1.6 | 0.0 | 0.00 | 0.00 | 0.00 | 75 | 1017.3 |
| 20260505190239 | 15 | 134 | 1.6 | 0.0 | 0.00 | 0.00 | 0.00 | 76 | 1017.1 |
| 20260505185838 | 15 | 184 | 3.2 | 0.0 | 0.00 | 0.00 | 0.00 | 77 | 1017.2 |
| 20260505185235 | 15 | 179 | 0.0 | 0.0 | 0.00 | 0.00 | 0.00 | 78 | 1017.3 |
| 20260505184848 | 15 | 113 | 1.6 | 0.0 | 0.00 | 0.00 | 0.00 | 79 | 1017.2 |
| 20260505184834 | 15 | 199 | 1.6 | 0.0 | 0.00 | 0.00 | 0.00 | 80 | 1017.2 |
| 20260505184433 | 15 | 140 | 3.2 | 0.0 | 0.00 | 0.00 | 0.00 | 79 | 1017.1 |
| 20260505184233 | 15 | 236 | 0.0 | 0.0 | 0.00 | 0.00 | 0.00 | 78 | 1017.3 |
| 20260505184047 | 15 | 218 | 6.4 | 0.0 | 0.00 | 0.00 | 0.00 | 79 | 1017.3 |
| 20260505184033 | 15 | 176 | 1.6 | 0.0 | 0.00 | 0.00 | 0.00 | 78 | 1017.2 |
| 20260505183632 | 15 | 146 | 3.2 | 0.0 | 0.00 | 0.00 | 0.00 | 78 | 1017.2 |
| 20260505183030 | 15 | 218 | 4.8 | 0.0 | 0.00 | 0.00 | 0.00 | 80 | 1017.2 |
| 20260505182830 | 15 | 209 | 3.2 | 0.0 | 0.00 | 0.00 | 0.00 | 80 | 1017.1 |
| 20260505182228 | 14 | 180 | 1.6 | 0.0 | 0.00 | 0.00 | 0.00 | 79 | 1017.1 |
| 20260505181827 | 14 | 180 | 3.2 | 0.0 | 0.00 | 0.00 | 0.00 | 80 | 1017.2 |
| 20260505181627 | 15 | 200 | 8.0 | 0.0 | 0.00 | 0.00 | 0.00 | 79 | 1017.1 |
| 20260505181427 | 15 | 171 | 3.2 | 0.0 | 0.00 | 0.00 | 0.00 | 79 | 1017.1 |
| 20260505181226 | 15 | 150 | 3.2 | 0.0 | 0.00 | 0.00 | 0.00 | 79 | 1017.1 |
| 20260505181039 | 15 | 207 | 4.8 | 0.0 | 0.00 | 0.00 | 0.00 | 77 | 1017.2 |
| 20260505181026 | 15 | 222 | 8.0 | 0.0 | 0.00 | 0.00 | 0.00 | 79 | 1017.1 |
| 20260505180836 | 15 | 174 | 3.2 | 0.0 | 0.00 | 0.00 | 0.00 | 78 | 1017.0 |
| 20260505180425 | 15 | 188 | 3.2 | 0.0 | 0.00 | 0.00 | 0.00 | 77 | 1017.2 |
| 20260505180024 | 15 | 82 | 1.6 | 0.0 | 0.00 | 0.00 | 0.00 | 79 | 1016.9 |
| 20260505175824 | 15 | 196 | 1.6 | 0.0 | 0.00 | 0.00 | 0.00 | 80 | 1017.0 |
| 20260505175623 | 14 | 181 | 1.6 | 0.0 | 0.00 | 0.00 | 0.00 | 80 | 1017.0 |
| 20260505175437 | 14 | 162 | 6.4 | 0.0 | 0.00 | 0.00 | 0.00 | 80 | 1017.1 |
| 20260505175423 | 14 | 138 | 3.2 | 0.0 | 0.00 | 0.00 | 0.00 | 81 | 1017.0 |
| 20260505175022 | 14 | 141 | 3.2 | 0.0 | 0.00 | 0.00 | 0.00 | 79 | 1017.1 |
| 20260505174833 | 14 | 146 | 1.6 | 0.0 | 0.00 | 0.00 | 0.00 | 80 | 1017.1 |
| 20260505174822 | 14 | 175 | 3.2 | 0.0 | 0.00 | 0.00 | 0.00 | 80 | 1017.1 |
| 20260505174635 | 14 | 149 | 1.6 | 0.0 | 0.00 | 0.00 | 0.00 | 81 | 1017.1 |
| 20260505174235 | 14 | 157 | 1.6 | 0.0 | 0.00 | 0.00 | 0.00 | 80 | 1017.2 |
| 20260505174221 | 14 | 210 | 1.6 | 0.0 | 0.00 | 0.00 | 0.00 | 81 | 1017.0 |
| 20260505174031 | 14 | 194 | 9.7 | 0.0 | 0.00 | 0.00 | 0.00 | 80 | 1017.2 |
| 20260505173834 | 14 | 153 | 1.6 | 0.0 | 0.00 | 0.00 | 0.00 | 80 | 1017.3 |
| 20260505173433 | 14 | 204 | 1.6 | 0.0 | 0.00 | 0.00 | 0.00 | 81 | 1017.1 |
| 20260505173420 | 14 | 207 | 6.4 | 0.0 | 0.00 | 0.00 | 0.00 | 79 | 1017.3 |
| 20260505172617 | 14 | 189 | 4.8 | 0.0 | 0.00 | 0.00 | 0.00 | 81 | 1017.2 |
| 20260505171826 | 14 | 258 | 1.6 | 0.0 | 0.00 | 0.00 | 0.00 | 82 | 1017.1 |
| 20260505171414 | 13 | 189 | 3.2 | 0.0 | 0.00 | 0.00 | 0.00 | 80 | 1017.1 |
| 20260505171214 | 14 | 185 | 6.4 | 0.0 | 0.00 | 0.00 | 0.00 | 81 | 1017.2 |
| 20260505170613 | 13 | 202 | 1.6 | 0.0 | 0.00 | 0.00 | 0.00 | 82 | 1016.9 |
| 20260505170413 | 13 | 201 | 3.2 | 0.0 | 0.00 | 0.00 | 0.00 | 82 | 1016.9 |
| 20260505170213 | 13 | 223 | 1.6 | 0.0 | 0.00 | 0.00 | 0.00 | 81 | 1016.9 |
| 20260505170013 | 13 | 176 | 4.8 | 0.0 | 0.00 | 0.00 | 0.00 | 81 | 1016.9 |
| 20260505165611 | 13 | 152 | 3.2 | 0.0 | 0.00 | 0.00 | 0.00 | 82 | 1016.9 |
| 20260505165410 | 13 | 127 | 1.6 | 0.0 | 0.00 | 0.00 | 0.00 | 81 | 1016.9 |
| 20260505165210 | 13 | 173 | 0.0 | 0.0 | 0.00 | 0.00 | 0.00 | 82 | 1017.0 |
| 20260505165010 | 13 | 179 | 3.2 | 0.0 | 0.00 | 0.00 | 0.00 | 83 | 1016.9 |
| 20260505164409 | 13 | 170 | 0.0 | 0.0 | 0.00 | 0.00 | 0.00 | 82 | 1016.7 |
| 20260505164208 | 13 | 207 | 4.8 | 0.0 | 0.00 | 0.00 | 0.00 | 82 | 1016.8 |
| 20260505163606 | 13 | 221 | 3.2 | 0.0 | 0.00 | 0.00 | 0.00 | 83 | 1016.8 |
| 20260505163406 | 13 | 156 | 1.6 | 0.0 | 0.00 | 0.00 | 0.00 | 83 | 1016.8 |
| 20260505163215 | 13 | 210 | 3.2 | 0.0 | 0.00 | 0.00 | 0.00 | 83 | 1016.9 |
| 20260505162804 | 13 | 208 | 4.8 | 0.0 | 0.00 | 0.00 | 0.00 | 83 | 1016.9 |
| 20260505162212 | 13 | 238 | 0.0 | 0.0 | 0.00 | 0.00 | 0.00 | 82 | 1016.7 |
| 20260505162204 | 13 | 93 | 1.6 | 0.0 | 0.00 | 0.00 | 0.00 | 83 | 1016.9 |
| 20260505161801 | 13 | 264 | 3.2 | 0.0 | 0.00 | 0.00 | 0.00 | 84 | 1016.8 |
| 20260505161400 | 13 | 133 | 1.6 | 0.0 | 0.00 | 0.00 | 0.00 | 83 | 1016.7 |
| 20260505161001 | 13 | 182 | 1.6 | 0.0 | 0.00 | 0.00 | 0.00 | 84 | 1016.6 |
| 20260505160759 | 13 | 146 | 0.0 | 0.0 | 0.00 | 0.00 | 0.00 | 84 | 1016.9 |
| 20260505160559 | 13 | 144 | 1.6 | 0.0 | 0.00 | 0.00 | 0.00 | 84 | 1016.8 |
| 20260505160359 | 13 | 195 | 1.6 | 0.0 | 0.00 | 0.00 | 0.00 | 83 | 1016.7 |
| 20260505153152 | 13 | 180 | 1.6 | 0.0 | 0.00 | 0.00 | 0.00 | 86 | 1016.4 |
| 20260505152951 | 12 | 249 | 1.6 | 0.0 | 0.00 | 0.00 | 0.00 | 86 | 1016.3 |
| 20260505152550 | 12 | 184 | 6.4 | 0.0 | 0.00 | 0.00 | 0.00 | 86 | 1016.3 |
| 20260505152350 | 12 | 232 | 3.2 | 0.0 | 0.00 | 0.00 | 0.00 | 86 | 1016.3 |
| 20260505152149 | 12 | 207 | 3.2 | 0.0 | 0.00 | 0.00 | 0.00 | 86 | 1016.3 |
| 20260505151948 | 12 | 185 | 3.2 | 0.0 | 0.00 | 0.00 | 0.00 | 86 | 1016.4 |
| 20260505151747 | 12 | 151 | 1.6 | 0.0 | 0.00 | 0.00 | 0.00 | 86 | 1016.4 |
| 20260505151559 | 13 | 196 | 3.2 | 0.0 | 0.00 | 0.00 | 0.00 | 86 | 1016.2 |
| 20260505151547 | 12 | 172 | 3.2 | 0.0 | 0.00 | 0.00 | 0.00 | 86 | 1016.2 |
| 20260505150544 | 12 | 206 | 0.0 | 0.0 | 0.00 | 0.00 | 0.00 | 86 | 1016.5 |
| 20260505150356 | 12 | 204 | 4.8 | 0.0 | 0.00 | 0.00 | 0.00 | 87 | 1016.4 |
| 20260505150344 | 12 | 125 | 3.2 | 0.0 | 0.00 | 0.00 | 0.00 | 86 | 1016.6 |
| 20260505140532 | 12 | 175 | 1.6 | 0.0 | 0.00 | 0.00 | 0.00 | 89 | 1015.7 |
| 20260505140332 | 12 | 201 | 4.8 | 0.0 | 0.00 | 0.00 | 0.00 | 89 | 1015.6 |
| 20260505130120 | 12 | 253 | 3.2 | 0.0 | 0.00 | 0.00 | 0.00 | 89 | 1015.0 |
| 20260505124716 | 12 | 179 | 3.2 | 0.0 | 0.00 | 0.00 | 0.00 | 90 | 1014.9 |
| 20260505124517 | 12 | 186 | 4.8 | 0.0 | 0.00 | 0.00 | 0.00 | 90 | 1014.9 |
| 20260505124316 | 12 | 181 | 6.4 | 0.0 | 0.00 | 0.00 | 0.00 | 90 | 1014.8 |
| 20260505124115 | 12 | 162 | 4.8 | 0.0 | 0.00 | 0.00 | 0.00 | 90 | 1014.9 |
| 20260505123915 | 12 | 218 | 6.4 | 0.0 | 0.00 | 0.00 | 0.00 | 90 | 1014.9 |
| 20260505123714 | 12 | 244 | 3.2 | 0.0 | 0.00 | 0.00 | 0.00 | 90 | 1014.8 |
| 20260505123512 | 12 | 178 | 4.8 | 0.0 | 0.00 | 0.00 | 0.00 | 90 | 1014.7 |
| 20260505123313 | 12 | 211 | 0.0 | 0.0 | 0.00 | 0.00 | 0.00 | 90 | 1014.9 |
| 20260505123112 | 12 | 202 | 4.8 | 0.0 | 0.00 | 0.00 | 0.00 | 90 | 1014.7 |
| 20260505122711 | 12 | 168 | 4.8 | 0.0 | 0.00 | 0.00 | 0.00 | 90 | 1014.7 |
| 20260505122523 | 12 | 133 | 1.6 | 0.0 | 0.00 | 0.00 | 0.00 | 90 | 1014.8 |
| 20260505122510 | 12 | 196 | 1.6 | 0.0 | 0.00 | 0.00 | 0.00 | 90 | 1014.8 |
| 20260505121910 | 12 | 179 | 6.4 | 0.0 | 0.00 | 0.00 | 0.00 | 90 | 1014.7 |
| 20260505121508 | 12 | 192 | 4.8 | 0.0 | 0.00 | 0.00 | 0.00 | 90 | 1014.6 |
| 20260505121308 | 12 | 214 | 4.8 | 0.0 | 0.00 | 0.00 | 0.00 | 90 | 1014.9 |
| 20260505121107 | 12 | 145 | 1.6 | 0.0 | 0.00 | 0.00 | 0.00 | 90 | 1014.7 |
| 20260505120908 | 12 | 197 | 3.2 | 0.0 | 0.00 | 0.00 | 0.00 | 90 | 1014.8 |
| 20260505120718 | 12 | 221 | 1.6 | 0.0 | 0.00 | 0.00 | 0.00 | 90 | 1014.5 |
| 20260505120306 | 12 | 197 | 1.6 | 0.0 | 0.00 | 0.00 | 0.00 | 90 | 1014.5 |
| 20260505120106 | 12 | 160 | 1.6 | 0.0 | 0.00 | 0.00 | 0.00 | 90 | 1014.7 |
| 20260505115905 | 12 | 225 | 3.2 | 0.0 | 0.00 | 0.00 | 0.00 | 90 | 1014.5 |
| 20260505115705 | 12 | 234 | 0.0 | 0.0 | 0.00 | 0.00 | 0.00 | 90 | 1014.5 |
| 20260505115505 | 12 | 242 | 1.6 | 0.0 | 0.00 | 0.00 | 0.00 | 90 | 1014.5 |
| 20260505115306 | 12 | 234 | 1.6 | 0.0 | 0.00 | 0.00 | 0.00 | 90 | 1014.5 |
| 20260505115104 | 12 | 204 | 3.2 | 0.0 | 0.00 | 0.00 | 0.00 | 90 | 1014.5 |
| 20260505114904 | 12 | 204 | 1.6 | 0.0 | 0.00 | 0.00 | 0.00 | 90 | 1014.6 |
| 20260505114704 | 12 | 174 | 9.7 | 0.0 | 0.00 | 0.00 | 0.00 | 90 | 1014.5 |
| 20260505114503 | 12 | 184 | 3.2 | 0.0 | 0.00 | 0.00 | 0.00 | 90 | 1014.6 |
| 20260505114302 | 12 | 200 | 0.0 | 0.0 | 0.00 | 0.00 | 0.00 | 90 | 1014.8 |
| 20260505114117 | 12 | 123 | 1.6 | 0.0 | 0.00 | 0.00 | 0.00 | 90 | 1014.4 |
| 20260505114102 | 12 | 123 | 0.0 | 0.0 | 0.00 | 0.00 | 0.00 | 90 | 1014.7 |
| 20260505113913 | 12 | 166 | 4.8 | 0.0 | 0.00 | 0.00 | 0.00 | 90 | 1014.6 |
| 20260505113501 | 12 | 228 | 4.8 | 0.0 | 0.00 | 0.00 | 0.00 | 90 | 1014.5 |
| 20260505113301 | 12 | 146 | 1.6 | 0.0 | 0.00 | 0.00 | 0.00 | 90 | 1014.6 |
| 20260505113113 | 12 | 239 | 3.2 | 0.0 | 0.00 | 0.00 | 0.00 | 90 | 1014.5 |
| 20260505113059 | 12 | 191 | 6.4 | 0.0 | 0.00 | 0.00 | 0.00 | 90 | 1014.6 |
| 20260505112658 | 12 | 206 | 4.8 | 0.0 | 0.00 | 0.00 | 0.00 | 90 | 1014.5 |
| 20260505112256 | 12 | 209 | 1.6 | 0.0 | 0.00 | 0.00 | 0.00 | 90 | 1014.4 |
| 20260505112057 | 12 | 279 | 0.0 | 0.0 | 0.00 | 0.00 | 0.00 | 90 | 1014.4 |
| 20260505111856 | 12 | 199 | 3.2 | 0.0 | 0.00 | 0.00 | 0.00 | 90 | 1014.4 |
| 20260505111656 | 12 | 283 | 0.0 | 0.0 | 0.00 | 0.00 | 0.00 | 90 | 1014.4 |
| 20260505111455 | 12 | 209 | 1.6 | 0.0 | 0.00 | 0.00 | 0.00 | 90 | 1014.4 |
| 20260505111254 | 12 | 296 | 1.6 | 0.0 | 0.00 | 0.00 | 0.00 | 90 | 1014.4 |
| 20260505111054 | 12 | 119 | 1.6 | 0.0 | 0.00 | 0.00 | 0.00 | 90 | 1014.4 |
| 20260505110906 | 12 | 193 | 3.2 | 0.0 | 0.00 | 0.00 | 0.00 | 90 | 1014.3 |
| 20260505110853 | 12 | 204 | 3.2 | 0.0 | 0.00 | 0.00 | 0.00 | 90 | 1014.4 |
| 20260505110453 | 12 | 134 | 1.6 | 0.0 | 0.00 | 0.00 | 0.00 | 90 | 1014.5 |
| 20260505102053 | 12 | 193 | 11.3 | 0.0 | 0.00 | 0.00 | 0.00 | 91 | 1013.9 |
| 20260505102044 | 12 | 197 | 4.8 | 0.0 | 0.00 | 0.00 | 0.00 | 91 | 1013.7 |
| 20260505101642 | 12 | 190 | 1.6 | 0.0 | 0.00 | 0.00 | 0.00 | 91 | 1014.0 |
| 20260505101241 | 12 | 201 | 8.0 | 0.0 | 0.00 | 0.00 | 0.00 | 91 | 1013.8 |
| 20260505101041 | 12 | 171 | 1.6 | 0.0 | 0.00 | 0.00 | 0.00 | 91 | 1013.9 |
| 20260505100840 | 12 | 163 | 1.6 | 0.0 | 0.00 | 0.00 | 0.00 | 91 | 1013.9 |
| 20260505100649 | 12 | 212 | 3.2 | 0.0 | 0.00 | 0.00 | 0.00 | 91 | 1013.9 |
| 20260505100639 | 12 | 207 | 1.6 | 0.0 | 0.00 | 0.00 | 0.00 | 91 | 1013.8 |
| 20260505100238 | 12 | 231 | 0.0 | 0.0 | 0.00 | 0.00 | 0.00 | 91 | 1013.7 |
| 20260505100038 | 12 | 237 | 4.8 | 0.0 | 0.00 | 0.00 | 0.00 | 91 | 1013.8 |
| 20260505095837 | 12 | 233 | 1.6 | 0.0 | 0.00 | 0.00 | 0.00 | 91 | 1013.9 |
| 20260505095636 | 12 | 208 | 6.4 | 0.0 | 0.00 | 0.00 | 0.00 | 91 | 1013.9 |
| 20260505095434 | 12 | 206 | 6.4 | 0.0 | 0.00 | 0.00 | 0.00 | 91 | 1013.8 |
| 20260505095244 | 12 | 200 | 6.4 | 0.0 | 0.00 | 0.00 | 0.00 | 91 | 1013.9 |
| 20260505095234 | 12 | 203 | 4.8 | 0.0 | 0.00 | 0.00 | 0.00 | 91 | 1013.9 |
| 20260505094843 | 12 | 195 | 1.6 | 0.0 | 0.00 | 0.00 | 0.00 | 92 | 1013.7 |
| 20260505094834 | 12 | 164 | 1.6 | 0.0 | 0.00 | 0.00 | 0.00 | 92 | 1013.8 |
| 20260505094434 | 12 | 200 | 6.4 | 0.0 | 0.00 | 0.00 | 0.00 | 92 | 1013.9 |
| 20260505094233 | 12 | 209 | 3.2 | 0.0 | 0.00 | 0.00 | 0.00 | 92 | 1013.8 |
| 20260505094033 | 12 | 223 | 3.2 | 0.0 | 0.00 | 0.00 | 0.00 | 92 | 1013.8 |
| 20260505093844 | 12 | 179 | 4.8 | 0.0 | 0.00 | 0.00 | 0.00 | 92 | 1013.8 |
| 20260505093832 | 12 | 160 | 3.2 | 0.0 | 0.00 | 0.00 | 0.00 | 92 | 1013.8 |
| 20260505093642 | 12 | 189 | 3.2 | 0.0 | 0.00 | 0.00 | 0.00 | 92 | 1013.8 |
| 20260505093230 | 12 | 239 | 4.8 | 0.0 | 0.00 | 0.00 | 0.00 | 92 | 1013.8 |
| 20260505093030 | 12 | 230 | 1.6 | 0.0 | 0.00 | 0.00 | 0.00 | 92 | 1013.9 |
| 20260505092830 | 12 | 174 | 1.6 | 0.0 | 0.00 | 0.00 | 0.00 | 92 | 1013.9 |
| 20260505092630 | 12 | 156 | 6.4 | 0.0 | 0.00 | 0.00 | 0.00 | 92 | 1013.9 |
| 20260505092440 | 12 | 190 | 8.0 | 0.0 | 0.00 | 0.00 | 0.00 | 92 | 1013.6 |
| 20260505092428 | 12 | 181 | 1.6 | 0.0 | 0.00 | 0.00 | 0.00 | 92 | 1013.6 |
| 20260505092027 | 12 | 181 | 6.4 | 0.0 | 0.00 | 0.00 | 0.00 | 92 | 1013.5 |
| 20260505091827 | 12 | 167 | 3.2 | 0.0 | 0.00 | 0.00 | 0.00 | 92 | 1013.6 |
| 20260505091626 | 12 | 183 | 6.4 | 0.0 | 0.00 | 0.00 | 0.00 | 92 | 1013.5 |
| 20260505091226 | 12 | 138 | 3.2 | 0.0 | 0.00 | 0.00 | 0.00 | 92 | 1013.6 |
| 20260505091026 | 12 | 186 | 6.4 | 0.0 | 0.00 | 0.00 | 0.00 | 92 | 1013.5 |
| 20260505090826 | 12 | 159 | 1.6 | 0.0 | 0.00 | 0.00 | 0.00 | 92 | 1013.5 |
| 20260505090425 | 12 | 196 | 1.6 | 0.0 | 0.00 | 0.00 | 0.00 | 92 | 1013.5 |
| 20260505090024 | 12 | 180 | 1.6 | 0.0 | 0.00 | 0.00 | 0.00 | 92 | 1013.6 |
| 20260505085624 | 12 | 228 | 3.2 | 0.0 | 0.00 | 0.00 | 0.00 | 92 | 1013.4 |
| 20260505085422 | 12 | 181 | 3.2 | 0.0 | 0.00 | 0.00 | 0.00 | 92 | 1013.4 |
| 20260505085222 | 12 | 153 | 3.2 | 0.0 | 0.00 | 0.00 | 0.00 | 92 | 1013.5 |
| 20260505085021 | 12 | 185 | 1.6 | 0.0 | 0.00 | 0.00 | 0.00 | 92 | 1013.3 |
| 20260505084821 | 12 | 204 | 1.6 | 0.0 | 0.00 | 0.00 | 0.00 | 92 | 1013.5 |
| 20260505084631 | 12 | 221 | 3.2 | 0.0 | 0.00 | 0.00 | 0.00 | 92 | 1013.4 |
| 20260505084621 | 12 | 191 | 4.8 | 0.0 | 0.00 | 0.00 | 0.00 | 92 | 1013.5 |
| 20260505084220 | 12 | 184 | 4.8 | 0.0 | 0.00 | 0.00 | 0.00 | 92 | 1013.5 |
| 20260505084020 | 12 | 208 | 3.2 | 0.0 | 0.00 | 0.00 | 0.00 | 92 | 1013.3 |
| 20260505083219 | 12 | 223 | 1.6 | 0.0 | 0.00 | 0.00 | 0.00 | 92 | 1013.3 |
| 20260505083018 | 12 | 184 | 3.2 | 0.0 | 0.00 | 0.00 | 0.00 | 92 | 1013.3 |
| 20260505082817 | 12 | 178 | 1.6 | 0.0 | 0.00 | 0.00 | 0.00 | 92 | 1013.3 |
| 20260505082616 | 12 | 162 | 3.2 | 0.0 | 0.00 | 0.00 | 0.00 | 92 | 1013.3 |
| 20260505082416 | 12 | 182 | 4.8 | 0.0 | 0.00 | 0.00 | 0.00 | 92 | 1013.2 |
| 20260505081615 | 12 | 197 | 4.8 | 0.0 | 0.00 | 0.00 | 0.00 | 92 | 1013.2 |
| 20260505081415 | 12 | 207 | 4.8 | 0.0 | 0.00 | 0.00 | 0.00 | 92 | 1013.3 |
| 20260505081214 | 12 | 250 | 3.2 | 0.0 | 0.00 | 0.00 | 0.00 | 92 | 1013.4 |
| 20260505081014 | 12 | 184 | 1.6 | 0.0 | 0.00 | 0.00 | 0.00 | 92 | 1013.3 |
| 20260505080814 | 12 | 177 | 3.2 | 0.0 | 0.00 | 0.00 | 0.00 | 92 | 1013.2 |
| 20260505080624 | 12 | 185 | 3.2 | 0.0 | 0.00 | 0.00 | 0.00 | 92 | 1013.4 |
| 20260505080612 | 12 | 168 | 1.6 | 0.0 | 0.00 | 0.00 | 0.00 | 92 | 1013.3 |
| 20260505080211 | 12 | 187 | 4.8 | 0.0 | 0.00 | 0.00 | 0.00 | 92 | 1013.5 |
| 20260505080011 | 12 | 196 | 6.4 | 0.0 | 0.00 | 0.00 | 0.00 | 92 | 1013.2 |
| 20260505075810 | 12 | 195 | 3.2 | 0.0 | 0.00 | 0.00 | 0.00 | 92 | 1013.3 |
| 20260505075610 | 12 | 202 | 1.6 | 0.0 | 0.00 | 0.00 | 0.00 | 92 | 1013.3 |
| 20260505075410 | 12 | 209 | 3.2 | 0.0 | 0.00 | 0.00 | 0.00 | 91 | 1013.3 |
| 20260505075210 | 12 | 218 | 4.8 | 0.0 | 0.00 | 0.00 | 0.00 | 91 | 1013.3 |
| 20260505075022 | 12 | 156 | 1.6 | 0.0 | 0.00 | 0.00 | 0.00 | 91 | 1013.3 |
| 20260505075009 | 12 | 206 | 4.8 | 0.0 | 0.00 | 0.00 | 0.00 | 91 | 1013.3 |
| 20260505074608 | 12 | 155 | 3.2 | 0.0 | 0.00 | 0.00 | 0.00 | 91 | 1013.2 |
| 20260505074408 | 12 | 203 | 3.2 | 0.0 | 0.00 | 0.00 | 0.00 | 91 | 1013.1 |
| 20260505074208 | 12 | 198 | 3.2 | 0.0 | 0.00 | 0.00 | 0.00 | 91 | 1013.2 |
| 20260505074018 | 12 | 212 | 6.4 | 0.0 | 0.00 | 0.00 | 0.00 | 91 | 1013.1 |
| 20260505074008 | 12 | 200 | 4.8 | 0.0 | 0.00 | 0.00 | 0.00 | 91 | 1013.1 |
| 20260505073820 | 12 | 202 | 3.2 | 0.0 | 0.00 | 0.00 | 0.00 | 91 | 1013.2 |
| 20260505073405 | 12 | 208 | 3.2 | 0.0 | 0.00 | 0.00 | 0.00 | 91 | 1013.1 |
| 20260505073206 | 12 | 214 | 4.8 | 0.0 | 0.00 | 0.00 | 0.00 | 91 | 1013.0 |
| 20260505073018 | 12 | 160 | 3.2 | 0.0 | 0.00 | 0.00 | 0.00 | 91 | 1012.9 |
| 20260505073005 | 12 | 175 | 1.6 | 0.0 | 0.00 | 0.00 | 0.00 | 91 | 1012.9 |
| 20260505072605 | 12 | 191 | 4.8 | 0.0 | 0.00 | 0.00 | 0.00 | 91 | 1012.8 |
| 20260505072404 | 12 | 203 | 3.2 | 0.0 | 0.00 | 0.00 | 0.00 | 91 | 1012.9 |
| 20260505072203 | 12 | 189 | 8.0 | 0.0 | 0.00 | 0.00 | 0.00 | 91 | 1012.8 |
| 20260505072002 | 12 | 194 | 3.2 | 0.0 | 0.00 | 0.00 | 0.00 | 91 | 1012.8 |
| 20260505071811 | 12 | 202 | 4.8 | 0.0 | 0.00 | 0.00 | 0.00 | 90 | 1012.8 |
| 20260505071802 | 12 | 203 | 4.8 | 0.0 | 0.00 | 0.00 | 0.00 | 91 | 1012.8 |
| 20260505071411 | 12 | 188 | 3.2 | 0.0 | 0.00 | 0.00 | 0.00 | 90 | 1012.8 |
| 20260505071401 | 12 | 188 | 4.8 | 0.0 | 0.00 | 0.00 | 0.00 | 90 | 1012.7 |
| 20260505071208 | 12 | 212 | 3.2 | 0.0 | 0.00 | 0.00 | 0.00 | 90 | 1012.8 |
| 20260505071010 | 12 | 173 | 1.6 | 0.0 | 0.00 | 0.00 | 0.00 | 90 | 1012.8 |
| 20260505070558 | 12 | 175 | 1.6 | 0.0 | 0.00 | 0.00 | 0.00 | 90 | 1012.7 |
| 20260505070406 | 12 | 122 | 1.6 | 0.0 | 0.00 | 0.00 | 0.00 | 90 | 1012.8 |
| 20260505070358 | 12 | 222 | 1.6 | 0.0 | 0.00 | 0.00 | 0.00 | 90 | 1012.7 |
| 20260505065756 | 12 | 193 | 8.0 | 0.0 | 0.00 | 0.00 | 0.00 | 90 | 1012.6 |
| 20260505065556 | 12 | 181 | 9.7 | 0.0 | 0.00 | 0.00 | 0.00 | 89 | 1012.6 |
| 20260505065355 | 12 | 206 | 8.0 | 0.0 | 0.00 | 0.00 | 0.00 | 89 | 1012.7 |
| 20260505065154 | 12 | 217 | 3.2 | 0.0 | 0.00 | 0.00 | 0.00 | 89 | 1012.7 |
| 20260505064954 | 12 | 193 | 4.8 | 0.0 | 0.00 | 0.00 | 0.00 | 89 | 1012.5 |
| 20260505064804 | 13 | 218 | 4.8 | 0.0 | 0.00 | 0.00 | 0.00 | 89 | 1012.4 |
| 20260505064754 | 12 | 189 | 1.6 | 0.0 | 0.00 | 0.00 | 0.00 | 89 | 1012.6 |
| 20260505064403 | 13 | 210 | 1.6 | 0.0 | 0.00 | 0.00 | 0.00 | 88 | 1012.4 |
| 20260505064353 | 13 | 171 | 1.6 | 0.0 | 0.00 | 0.00 | 0.00 | 89 | 1012.4 |
| 20260505064206 | 13 | 194 | 4.8 | 0.0 | 0.00 | 0.00 | 0.00 | 88 | 1012.3 |
| 20260505064003 | 13 | 150 | 4.8 | 0.0 | 0.00 | 0.00 | 0.00 | 88 | 1012.3 |
| 20260505063550 | 13 | 194 | 4.8 | 0.0 | 0.00 | 0.00 | 0.00 | 88 | 1012.1 |
| 20260505063404 | 13 | 159 | 3.2 | 0.0 | 0.00 | 0.00 | 0.00 | 88 | 1012.4 |
| 20260505063350 | 13 | 172 | 3.2 | 0.0 | 0.00 | 0.00 | 0.00 | 88 | 1012.3 |
| 20260505062950 | 13 | 191 | 1.6 | 0.0 | 0.00 | 0.00 | 0.00 | 88 | 1012.3 |
| 20260505062750 | 13 | 183 | 1.6 | 0.0 | 0.00 | 0.00 | 0.00 | 88 | 1012.4 |
| 20260505062548 | 13 | 193 | 3.2 | 0.0 | 0.00 | 0.00 | 0.00 | 88 | 1012.2 |
| 20260505062349 | 13 | 180 | 8.0 | 0.0 | 0.00 | 0.00 | 0.00 | 87 | 1012.3 |
| 20260505062158 | 13 | 207 | 6.4 | 0.0 | 0.00 | 0.00 | 0.00 | 87 | 1012.2 |
| 20260505062148 | 13 | 208 | 9.7 | 0.0 | 0.00 | 0.00 | 0.00 | 87 | 1012.3 |
| 20260505061756 | 13 | 219 | 1.6 | 0.0 | 0.00 | 0.00 | 0.00 | 87 | 1012.3 |
| 20260505061748 | 13 | 177 | 1.6 | 0.0 | 0.00 | 0.00 | 0.00 | 87 | 1012.1 |
| 20260505061356 | 13 | 185 | 4.8 | 0.0 | 0.00 | 0.00 | 0.00 | 87 | 1012.1 |
| 20260505061347 | 13 | 190 | 1.6 | 0.0 | 0.00 | 0.00 | 0.00 | 87 | 1012.2 |
| 20260505061159 | 13 | 193 | 6.4 | 0.0 | 0.00 | 0.00 | 0.00 | 87 | 1012.1 |
| 20260505060746 | 13 | 187 | 1.6 | 0.0 | 0.00 | 0.00 | 0.00 | 87 | 1012.1 |
| 20260505060545 | 13 | 207 | 4.8 | 0.0 | 0.00 | 0.00 | 0.00 | 87 | 1012.0 |
| 20260505060357 | 13 | 183 | 3.2 | 0.0 | 0.00 | 0.00 | 0.00 | 87 | 1012.0 |
| 20260505060345 | 13 | 163 | 3.2 | 0.0 | 0.00 | 0.00 | 0.00 | 87 | 1012.0 |
| 20260505055945 | 13 | 145 | 3.2 | 0.0 | 0.00 | 0.00 | 0.00 | 87 | 1011.9 |
| 20260505055745 | 13 | 217 | 9.7 | 0.0 | 0.00 | 0.00 | 0.00 | 86 | 1012.0 |
| 20260505055544 | 13 | 204 | 1.6 | 0.0 | 0.00 | 0.00 | 0.00 | 86 | 1012.0 |
| 20260505055344 | 13 | 73 | 1.6 | 0.0 | 0.00 | 0.00 | 0.00 | 86 | 1011.8 |
| 20260505055144 | 13 | 158 | 3.2 | 0.0 | 0.00 | 0.00 | 0.00 | 86 | 1011.7 |
| 20260505054943 | 13 | 190 | 8.0 | 0.0 | 0.00 | 0.00 | 0.00 | 86 | 1011.8 |
| 20260505054743 | 13 | 197 | 3.2 | 0.0 | 0.00 | 0.00 | 0.00 | 86 | 1011.7 |
| 20260505054542 | 13 | 174 | 3.2 | 0.0 | 0.00 | 0.00 | 0.00 | 85 | 1011.7 |
| 20260505054342 | 13 | 179 | 3.2 | 0.0 | 0.00 | 0.00 | 0.00 | 85 | 1011.8 |
| 20260505054141 | 13 | 222 | 3.2 | 0.0 | 0.00 | 0.00 | 0.00 | 85 | 1011.6 |
| 20260505053941 | 14 | 200 | 0.0 | 0.0 | 0.00 | 0.00 | 0.00 | 85 | 1011.6 |
| 20260505053740 | 14 | 178 | 1.6 | 0.0 | 0.00 | 0.00 | 0.00 | 85 | 1011.7 |
| 20260505053541 | 14 | 185 | 1.6 | 0.0 | 0.00 | 0.00 | 0.00 | 85 | 1011.8 |
| 20260505053339 | 14 | 202 | 4.8 | 0.0 | 0.00 | 0.00 | 0.00 | 85 | 1011.8 |
| 20260505053138 | 14 | 154 | 1.6 | 0.0 | 0.00 | 0.00 | 0.00 | 85 | 1011.9 |
| 20260505052938 | 14 | 206 | 9.7 | 0.0 | 0.00 | 0.00 | 0.00 | 84 | 1011.6 |
| 20260505052738 | 14 | 212 | 3.2 | 0.0 | 0.00 | 0.00 | 0.00 | 84 | 1011.6 |
| 20260505052548 | 14 | 197 | 9.7 | 0.0 | 0.00 | 0.00 | 0.00 | 84 | 1011.7 |
| 20260505052537 | 14 | 188 | 3.2 | 0.0 | 0.00 | 0.00 | 0.00 | 84 | 1011.7 |
| 20260505052136 | 14 | 163 | 1.6 | 0.0 | 0.00 | 0.00 | 0.00 | 84 | 1011.7 |
| 20260505051735 | 15 | 177 | 1.6 | 0.0 | 0.00 | 0.00 | 0.00 | 83 | 1011.6 |
| 20260505051544 | 15 | 206 | 3.2 | 0.0 | 0.00 | 0.00 | 0.00 | 83 | 1011.7 |
| 20260505051535 | 15 | 181 | 0.0 | 0.0 | 0.00 | 0.00 | 0.00 | 83 | 1011.6 |
| 20260505051346 | 15 | 191 | 1.6 | 0.0 | 0.00 | 0.00 | 0.00 | 82 | 1011.6 |
| 20260505050934 | 15 | 195 | 3.2 | 0.0 | 0.00 | 0.00 | 0.00 | 82 | 1011.6 |
| 20260505050733 | 15 | 148 | 1.6 | 0.0 | 0.00 | 0.00 | 0.00 | 82 | 1011.7 |
| 20260505050532 | 15 | 158 | 1.6 | 0.0 | 0.00 | 0.00 | 0.00 | 81 | 1011.5 |
| 20260505050332 | 15 | 184 | 1.6 | 0.0 | 0.00 | 0.00 | 0.00 | 81 | 1011.5 |
| 20260505050131 | 15 | 177 | 1.6 | 0.0 | 0.00 | 0.00 | 0.00 | 81 | 1011.5 |